Time,TemperatureF,DewpointF,PressureIn,WindDirection,WindDirectionDegrees,WindSpeedMPH,WindSpeedGustMPH,Humidity,HourlyPrecipIn,Conditions,Clouds,dailyrainin,SoftwareType,DateUTC
2013-07-28 00:05:00,63.7,57.8,29.81,ESE,116,3.0,5.0,81,0.00,,,0.00,Wunderground v.1.15,2013-07-28 07:05:00,
2013-07-28 00:26:00,63.3,57.7,29.81,SSE,162,3.0,3.0,82,0.00,,,0.00,Wunderground v.1.15,2013-07-28 07:26:00,
2013-07-28 00:30:00,63.2,57.9,29.81,SE,136,3.0,3.0,83,0.00,,,0.00,Wunderground v.1.15,2013-07-28 07:30:00,
2013-07-28 00:35:00,63.2,57.9,29.81,SE,136,2.0,3.0,83,0.00,,,0.00,Wunderground v.1.15,2013-07-28 07:35:00,
2013-07-28 00:40:00,63.2,57.9,29.81,SE,137,2.0,2.0,83,0.00,,,0.00,Wunderground v.1.15,2013-07-28 07:40:00,
2013-07-28 00:46:00,63.2,57.9,29.80,South,178,2.0,3.0,83,0.00,,,0.00,Wunderground v.1.15,2013-07-28 07:46:00,
2013-07-28 00:50:00,63.0,57.8,29.80,South,178,1.0,2.0,83,0.00,,,0.00,Wunderground v.1.15,2013-07-28 07:50:00,
2013-07-28 00:56:00,63.0,57.8,29.80,South,178,1.0,2.0,83,0.00,,,0.00,Wunderground v.1.15,2013-07-28 07:56:00,
2013-07-28 01:00:00,63.0,57.8,29.80,South,185,2.0,2.0,83,0.00,,,0.00,Wunderground v.1.15,2013-07-28 08:00:00,
2013-07-28 01:05:00,63.0,57.8,29.80,South,188,2.0,2.0,83,0.00,,,0.00,Wunderground v.1.15,2013-07-28 08:05:00,
2013-07-28 01:10:00,62.8,57.6,29.80,SW,226,2.0,3.0,83,0.00,,,0.00,Wunderground v.1.15,2013-07-28 08:10:00,
2013-07-28 01:15:00,62.8,57.9,29.80,SW,226,2.0,3.0,84,0.00,,,0.00,Wunderground v.1.15,2013-07-28 08:15:00,
2013-07-28 01:20:00,62.8,57.9,29.80,SW,226,2.0,2.0,84,0.00,,,0.00,Wunderground v.1.15,2013-07-28 08:20:00,
2013-07-28 01:25:00,62.7,57.8,29.80,SW,226,2.0,3.0,84,0.00,,,0.00,Wunderground v.1.15,2013-07-28 08:25:00,
2013-07-28 01:30:00,62.7,57.8,29.80,SW,226,2.0,2.0,84,0.00,,,0.00,Wunderground v.1.15,2013-07-28 08:30:00,
2013-07-28 02:05:00,62.7,58.1,29.79,SW,226,0.0,1.0,85,0.00,,,0.00,Wunderground v.1.15,2013-07-28 09:05:00,
2013-07-28 02:10:00,62.7,58.1,29.79,SW,226,1.0,1.0,85,0.00,,,0.00,Wunderground v.1.15,2013-07-28 09:10:00,
2013-07-28 02:15:00,62.7,58.1,29.79,SW,226,1.0,1.0,85,0.00,,,0.00,Wunderground v.1.15,2013-07-28 09:15:00,
2013-07-28 02:30:00,62.5,57.9,29.78,SE,140,2.0,6.0,85,0.00,,,0.00,Wunderground v.1.15,2013-07-28 09:30:00,
2013-07-28 02:35:00,62.4,57.8,29.78,ESE,117,3.0,6.0,85,0.00,,,0.00,Wunderground v.1.15,2013-07-28 09:35:00,
2013-07-28 02:55:00,62.4,57.8,29.78,ESE,109,3.0,3.0,85,0.00,,,0.00,Wunderground v.1.15,2013-07-28 09:55:00,
2013-07-28 03:00:00,62.2,57.6,29.78,ESE,119,3.0,3.0,85,0.00,,,0.00,Wunderground v.1.15,2013-07-28 10:00:00,
2013-07-28 03:05:00,62.2,57.6,29.78,East,100,3.0,3.0,85,0.00,,,0.00,Wunderground v.1.15,2013-07-28 10:05:00,
2013-07-28 03:20:00,62.2,57.6,29.78,East,100,2.0,2.0,85,0.00,,,0.00,Wunderground v.1.15,2013-07-28 10:20:00,
2013-07-28 03:25:00,62.2,57.6,29.78,East,100,2.0,3.0,85,0.00,,,0.00,Wunderground v.1.15,2013-07-28 10:25:00,
2013-07-28 03:30:00,62.2,57.6,29.78,East,100,2.0,2.0,85,0.00,,,0.00,Wunderground v.1.15,2013-07-28 10:30:00,
2013-07-28 03:41:00,62.2,58.0,29.78,East,100,1.0,1.0,86,0.00,,,0.00,Wunderground v.1.15,2013-07-28 10:41:00,
2013-07-28 03:50:00,62.2,58.0,29.78,East,100,1.0,2.0,86,0.00,,,0.00,Wunderground v.1.15,2013-07-28 10:50:00,
2013-07-28 04:05:00,62.2,58.0,29.78,ESE,102,2.0,2.0,86,0.00,,,0.00,Wunderground v.1.15,2013-07-28 11:05:00,
2013-07-28 04:10:00,62.0,57.8,29.78,ESE,102,2.0,2.0,86,0.00,,,0.00,Wunderground v.1.15,2013-07-28 11:10:00,
2013-07-28 04:15:00,62.0,58.1,29.78,ESE,102,1.0,1.0,87,0.00,,,0.00,Wunderground v.1.15,2013-07-28 11:15:00,
2013-07-28 04:25:00,62.0,58.1,29.78,South,181,2.0,2.0,87,0.00,,,0.00,Wunderground v.1.15,2013-07-28 11:25:00,
2013-07-28 04:30:00,62.0,58.1,29.78,South,189,2.0,3.0,87,0.00,,,0.00,Wunderground v.1.15,2013-07-28 11:30:00,
2013-07-28 04:35:00,62.0,58.1,29.78,South,188,2.0,2.0,87,0.00,,,0.00,Wunderground v.1.15,2013-07-28 11:35:00,
2013-07-28 04:40:00,61.9,58.0,29.78,SSW,210,2.0,2.0,87,0.00,,,0.00,Wunderground v.1.15,2013-07-28 11:40:00,
2013-07-28 04:45:00,61.7,57.8,29.78,SSW,210,3.0,3.0,87,0.00,,,0.00,Wunderground v.1.15,2013-07-28 11:45:00,
2013-07-28 04:55:00,61.6,58.0,29.78,SSW,210,1.0,1.0,88,0.00,,,0.00,Wunderground v.1.15,2013-07-28 11:55:00,
2013-07-28 05:00:00,61.6,58.0,29.78,SSW,210,1.0,2.0,88,0.00,,,0.00,Wunderground v.1.15,2013-07-28 12:00:00,
2013-07-28 05:05:00,61.6,58.0,29.78,South,169,2.0,2.0,88,0.00,,,0.00,Wunderground v.1.15,2013-07-28 12:05:00,
2013-07-28 05:20:00,61.2,57.9,29.78,SW,232,2.0,2.0,89,0.00,,,0.00,Wunderground v.1.15,2013-07-28 12:20:00,
2013-07-28 05:25:00,61.1,57.8,29.78,SW,224,2.0,2.0,89,0.00,,,0.00,Wunderground v.1.15,2013-07-28 12:25:00,
2013-07-28 05:30:00,61.1,57.8,29.78,SW,219,3.0,3.0,89,0.00,,,0.00,Wunderground v.1.15,2013-07-28 12:30:00,
2013-07-28 05:41:00,61.1,57.8,29.78,SW,219,1.0,1.0,89,0.00,,,0.00,Wunderground v.1.15,2013-07-28 12:41:00,
2013-07-28 05:45:00,61.1,57.8,29.79,SW,219,1.0,1.0,89,0.00,,,0.00,Wunderground v.1.15,2013-07-28 12:45:00,
2013-07-28 05:50:00,61.1,57.8,29.79,SW,219,1.0,1.0,89,0.00,,,0.00,Wunderground v.1.15,2013-07-28 12:50:00,
2013-07-28 05:55:00,61.1,57.8,29.79,SW,219,1.0,1.0,89,0.00,,,0.00,Wunderground v.1.15,2013-07-28 12:55:00,
2013-07-28 06:10:00,60.9,57.6,29.79,SW,219,1.0,1.0,89,0.00,,,0.00,Wunderground v.1.15,2013-07-28 13:10:00,
2013-07-28 06:20:00,60.9,57.6,29.80,SW,219,0.0,0.0,89,0.00,,,0.00,Wunderground v.1.15,2013-07-28 13:20:00,
2013-07-28 06:35:00,60.9,57.6,29.80,SE,141,1.0,1.0,89,0.00,,,0.00,Wunderground v.1.15,2013-07-28 13:35:00,
2013-07-28 06:40:00,60.9,57.6,29.80,SE,141,1.0,1.0,89,0.00,,,0.00,Wunderground v.1.15,2013-07-28 13:40:00,
2013-07-28 07:00:00,61.2,57.6,29.80,SE,141,0.0,0.0,88,0.00,,,0.00,Wunderground v.1.15,2013-07-28 14:00:00,
2013-07-28 07:05:00,61.2,57.3,29.80,SE,141,0.0,1.0,87,0.00,,,0.00,Wunderground v.1.15,2013-07-28 14:05:00,
2013-07-28 07:10:00,61.2,57.3,29.80,SE,141,1.0,1.0,87,0.00,,,0.00,Wunderground v.1.15,2013-07-28 14:10:00,
2013-07-28 07:15:00,61.2,57.3,29.80,SE,141,0.0,1.0,87,0.00,,,0.00,Wunderground v.1.15,2013-07-28 14:15:00,
2013-07-28 07:36:00,61.9,57.7,29.81,SE,141,1.0,1.0,86,0.00,,,0.00,Wunderground v.1.15,2013-07-28 14:36:00,
2013-07-28 07:45:00,62.0,57.8,29.81,SE,141,0.0,1.0,86,0.00,,,0.00,Wunderground v.1.15,2013-07-28 14:45:00,
2013-07-28 08:00:00,62.2,57.6,29.81,SE,141,1.0,1.0,85,0.00,,,0.00,Wunderground v.1.15,2013-07-28 15:00:00,
2013-07-28 08:05:00,62.4,57.8,29.81,SE,141,0.0,2.0,85,0.00,,,0.00,Wunderground v.1.15,2013-07-28 15:05:00,
2013-07-28 08:10:00,62.4,57.8,29.81,WSW,243,1.0,1.0,85,0.00,,,0.00,Wunderground v.1.15,2013-07-28 15:10:00,
2013-07-28 08:20:00,62.4,57.5,29.82,SE,128,1.0,2.0,84,0.00,,,0.00,Wunderground v.1.15,2013-07-28 15:20:00,
2013-07-28 08:25:00,62.5,57.6,29.82,SE,128,1.0,2.0,84,0.00,,,0.00,Wunderground v.1.15,2013-07-28 15:25:00,
2013-07-28 08:35:00,62.8,57.9,29.82,SE,128,1.0,1.0,84,0.00,,,0.00,Wunderground v.1.15,2013-07-28 15:35:00,
2013-07-28 08:46:00,63.0,57.8,29.82,SE,128,1.0,2.0,83,0.00,,,0.00,Wunderground v.1.15,2013-07-28 15:46:00,
2013-07-28 08:56:00,63.0,57.8,29.82,SE,128,1.0,1.0,83,0.00,,,0.00,Wunderground v.1.15,2013-07-28 15:56:00,
2013-07-28 09:00:00,63.0,57.8,29.82,SE,128,2.0,2.0,83,0.00,,,0.00,Wunderground v.1.15,2013-07-28 16:00:00,
2013-07-28 09:05:00,63.2,57.9,29.82,SE,128,2.0,2.0,83,0.00,,,0.00,Wunderground v.1.15,2013-07-28 16:05:00,
2013-07-28 09:10:00,63.3,57.7,29.82,SE,128,1.0,1.0,82,0.00,,,0.00,Wunderground v.1.15,2013-07-28 16:10:00,
2013-07-28 09:21:00,63.7,58.1,29.82,SW,222,2.0,3.0,82,0.00,,,0.00,Wunderground v.1.15,2013-07-28 16:21:00,
2013-07-28 09:30:00,63.7,57.8,29.81,SW,222,2.0,3.0,81,0.00,,,0.00,Wunderground v.1.15,2013-07-28 16:30:00,
2013-07-28 09:35:00,63.7,58.1,29.81,SW,222,2.0,2.0,82,0.00,,,0.00,Wunderground v.1.15,2013-07-28 16:35:00,
2013-07-28 09:50:00,64.1,58.1,29.81,SSW,213,2.0,2.0,81,0.00,,,0.00,Wunderground v.1.15,2013-07-28 16:50:00,
2013-07-28 09:55:00,64.3,58.3,29.81,SSW,213,2.0,2.0,81,0.00,,,0.00,Wunderground v.1.15,2013-07-28 16:55:00,
2013-07-28 10:00:00,64.5,58.2,29.81,SSW,213,2.0,2.0,80,0.00,,,0.00,Wunderground v.1.15,2013-07-28 17:00:00,
2013-07-28 10:05:00,64.6,58.3,29.81,SSW,213,2.0,2.0,80,0.00,,,0.00,Wunderground v.1.15,2013-07-28 17:05:00,
2013-07-28 10:20:00,65.1,58.4,29.82,South,178,3.0,3.0,79,0.00,,,0.00,Wunderground v.1.15,2013-07-28 17:20:00,
2013-07-28 10:25:00,65.3,58.6,29.82,South,188,3.0,6.0,79,0.00,,,0.00,Wunderground v.1.15,2013-07-28 17:25:00,
2013-07-28 10:30:00,65.6,58.6,29.82,SSW,210,3.0,3.0,78,0.00,,,0.00,Wunderground v.1.15,2013-07-28 17:30:00,
2013-07-28 10:35:00,65.4,58.4,29.82,SSW,200,3.0,3.0,78,0.00,,,0.00,Wunderground v.1.15,2013-07-28 17:35:00,
2013-07-28 10:50:00,65.9,58.5,29.82,South,191,2.0,2.0,77,0.00,,,0.00,Wunderground v.1.15,2013-07-28 17:50:00,
2013-07-28 10:55:00,66.1,58.3,29.82,SSE,167,3.0,3.0,76,0.00,,,0.00,Wunderground v.1.15,2013-07-28 17:55:00,
2013-07-28 11:16:00,66.6,58.8,29.81,SSW,200,3.0,3.0,76,0.00,,,0.00,Wunderground v.1.15,2013-07-28 18:16:00,
2013-07-28 11:20:00,66.9,58.7,29.81,SSW,195,2.0,3.0,75,0.00,,,0.00,Wunderground v.1.15,2013-07-28 18:20:00,
2013-07-28 11:30:00,67.8,59.2,29.81,SSW,196,3.0,4.0,74,0.00,,,0.00,Wunderground v.1.15,2013-07-28 18:30:00,
2013-07-28 11:45:00,68.4,58.6,29.81,South,189,4.0,4.0,71,0.00,,,0.00,Wunderground v.1.15,2013-07-28 18:45:00,
2013-07-28 11:50:00,67.8,58.8,29.81,WSW,254,4.0,4.0,73,0.00,,,0.00,Wunderground v.1.15,2013-07-28 18:50:00,
2013-07-28 11:55:00,68.4,59.4,29.81,South,176,4.0,4.0,73,0.00,,,0.00,Wunderground v.1.15,2013-07-28 18:55:00,
2013-07-28 12:00:00,69.1,58.9,29.81,SSE,161,3.0,5.0,70,0.00,,,0.00,Wunderground v.1.15,2013-07-28 19:00:00,
2013-07-28 12:05:00,69.8,58.8,29.81,SSW,196,4.0,5.0,68,0.00,,,0.00,Wunderground v.1.15,2013-07-28 19:05:00,
2013-07-28 12:15:00,70.0,59.4,29.81,South,186,3.0,3.0,69,0.00,,,0.00,Wunderground v.1.15,2013-07-28 19:15:00,
2013-07-28 12:30:00,69.6,58.6,29.81,SW,222,5.0,5.0,68,0.00,,,0.00,Wunderground v.1.15,2013-07-28 19:30:00,
2013-07-28 12:35:00,69.4,58.4,29.81,WNW,291,4.0,5.0,68,0.00,,,0.00,Wunderground v.1.15,2013-07-28 19:35:00,
2013-07-28 12:45:00,70.8,59.3,29.81,SSE,161,3.0,7.0,67,0.00,,,0.00,Wunderground v.1.15,2013-07-28 19:45:00,
2013-07-28 13:00:00,71.5,59.1,29.80,WSW,246,5.0,5.0,65,0.00,,,0.00,Wunderground v.1.15,2013-07-28 20:00:00,
2013-07-28 13:05:00,70.8,58.9,29.80,SW,230,5.0,5.0,66,0.00,,,0.00,Wunderground v.1.15,2013-07-28 20:05:00,
2013-07-28 13:10:00,71.2,59.3,29.80,SW,233,5.0,5.0,66,0.00,,,0.00,Wunderground v.1.15,2013-07-28 20:10:00,
2013-07-28 13:25:00,72.0,59.6,29.80,South,186,6.0,6.0,65,0.00,,,0.00,Wunderground v.1.15,2013-07-28 20:25:00,
2013-07-28 13:30:00,72.5,59.2,29.80,SSE,148,5.0,7.0,63,0.00,,,0.00,Wunderground v.1.15,2013-07-28 20:30:00,
2013-07-28 13:35:00,72.9,59.6,29.80,SSW,192,5.0,5.0,63,0.00,,,0.00,Wunderground v.1.15,2013-07-28 20:35:00,
2013-07-28 13:40:00,73.2,59.4,29.80,SSE,165,4.0,10.0,62,0.00,,,0.00,Wunderground v.1.15,2013-07-28 20:40:00,
2013-07-28 13:45:00,72.9,59.1,29.80,South,171,6.0,8.0,62,0.00,,,0.00,Wunderground v.1.15,2013-07-28 20:45:00,
2013-07-28 14:00:00,72.9,59.6,29.79,SSE,152,5.0,7.0,63,0.00,,,0.00,Wunderground v.1.15,2013-07-28 21:00:00,
2013-07-28 14:10:00,72.5,59.6,29.79,SSW,196,6.0,6.0,64,0.00,,,0.00,Wunderground v.1.15,2013-07-28 21:10:00,
2013-07-28 14:20:00,72.0,59.6,29.79,South,189,6.0,6.0,65,0.00,,,0.00,Wunderground v.1.15,2013-07-28 21:20:00,
2013-07-28 14:35:00,71.8,59.4,29.78,South,191,5.0,6.0,65,0.00,,,0.00,Wunderground v.1.15,2013-07-28 21:35:00,
2013-07-28 14:50:00,71.7,58.9,29.78,SSW,213,5.0,8.0,64,0.00,,,0.00,Wunderground v.1.15,2013-07-28 21:50:00,
2013-07-28 14:55:00,70.3,58.8,29.78,SW,224,6.0,8.0,67,0.00,,,0.00,Wunderground v.1.15,2013-07-28 21:55:00,
2013-07-28 15:00:00,70.3,58.8,29.78,SSW,196,8.0,8.0,67,0.00,,,0.00,Wunderground v.1.15,2013-07-28 22:00:00,
2013-07-28 15:05:00,70.6,58.3,29.78,SSW,213,6.0,10.0,65,0.00,,,0.00,Wunderground v.1.15,2013-07-28 22:05:00,
2013-07-28 15:20:00,71.5,59.1,29.78,SSW,198,7.0,7.0,65,0.00,,,0.00,Wunderground v.1.15,2013-07-28 22:20:00,
2013-07-28 15:30:00,71.5,58.7,29.77,SE,126,6.0,8.0,64,0.00,,,0.00,Wunderground v.1.15,2013-07-28 22:30:00,
2013-07-28 15:35:00,71.2,58.4,29.77,WSW,237,6.0,12.0,64,0.00,,,0.00,Wunderground v.1.15,2013-07-28 22:35:00,
2013-07-28 15:40:00,70.5,58.6,29.77,South,189,8.0,8.0,66,0.00,,,0.00,Wunderground v.1.15,2013-07-28 22:40:00,
2013-07-28 15:55:00,71.2,58.4,29.77,South,186,7.0,7.0,64,0.00,,,0.00,Wunderground v.1.15,2013-07-28 22:55:00,
2013-07-28 16:00:00,70.6,58.3,29.77,SW,220,8.0,8.0,65,0.00,,,0.00,Wunderground v.1.15,2013-07-28 23:00:00,
2013-07-28 16:05:00,69.8,58.3,29.77,SSW,202,8.0,10.0,67,0.00,,,0.00,Wunderground v.1.15,2013-07-28 23:05:00,
2013-07-28 16:10:00,69.3,58.3,29.77,SW,223,8.0,13.0,68,0.00,,,0.00,Wunderground v.1.15,2013-07-28 23:10:00,
2013-07-28 16:25:00,69.4,58.0,29.77,SSE,160,8.0,8.0,67,0.00,,,0.00,Wunderground v.1.15,2013-07-28 23:25:00,
2013-07-28 16:35:00,70.0,57.7,29.77,SW,224,6.0,7.0,65,0.00,,,0.00,Wunderground v.1.15,2013-07-28 23:35:00,
2013-07-28 16:40:00,70.3,58.0,29.77,SSW,200,7.0,7.0,65,0.00,,,0.00,Wunderground v.1.15,2013-07-28 23:40:00,
2013-07-28 16:56:00,69.1,57.7,29.77,SSW,209,7.0,10.0,67,0.00,,,0.00,Wunderground v.1.15,2013-07-28 23:56:00,
2013-07-28 17:00:00,68.8,57.8,29.77,WSW,237,7.0,10.0,68,0.00,,,0.00,Wunderground v.1.15,2013-07-29 00:00:00,
2013-07-28 17:10:00,69.3,57.5,29.77,SSW,200,6.0,8.0,66,0.00,,,0.00,Wunderground v.1.15,2013-07-29 00:10:00,
2013-07-28 17:15:00,68.9,57.5,29.77,SW,229,6.0,8.0,67,0.00,,,0.00,Wunderground v.1.15,2013-07-29 00:15:00,
2013-07-28 17:30:00,69.4,57.5,29.77,SW,227,6.0,7.0,66,0.00,,,0.00,Wunderground v.1.15,2013-07-29 00:30:00,
2013-07-28 17:35:00,69.6,57.7,29.77,South,188,5.0,7.0,66,0.00,,,0.00,Wunderground v.1.15,2013-07-29 00:35:00,
2013-07-28 17:45:00,70.0,57.7,29.77,South,176,5.0,6.0,65,0.00,,,0.00,Wunderground v.1.15,2013-07-29 00:45:00,
2013-07-28 17:55:00,69.1,57.3,29.77,SW,229,6.0,6.0,66,0.00,,,0.00,Wunderground v.1.15,2013-07-29 00:55:00,
2013-07-28 18:00:00,68.9,57.5,29.77,South,178,4.0,11.0,67,0.00,,,0.00,Wunderground v.1.15,2013-07-29 01:00:00,
2013-07-28 18:05:00,68.9,57.5,29.77,South,188,4.0,11.0,67,0.00,,,0.00,Wunderground v.1.15,2013-07-29 01:05:00,
2013-07-28 18:10:00,68.8,57.4,29.77,SSW,213,5.0,8.0,67,0.00,,,0.00,Wunderground v.1.15,2013-07-29 01:10:00,
2013-07-28 18:20:00,68.1,57.1,29.76,South,189,5.0,7.0,68,0.00,,,0.00,Wunderground v.1.15,2013-07-29 01:20:00,
2013-07-28 18:30:00,68.4,57.4,29.76,South,181,5.0,6.0,68,0.00,,,0.00,Wunderground v.1.15,2013-07-29 01:30:00,
2013-07-28 18:40:00,68.8,57.4,29.76,South,182,4.0,4.0,67,0.00,,,0.00,Wunderground v.1.15,2013-07-29 01:40:00,
2013-07-28 19:00:00,67.4,56.9,29.77,SSE,168,5.0,5.0,69,0.00,,,0.00,Wunderground v.1.15,2013-07-29 02:00:00,
2013-07-28 19:10:00,67.1,57.0,29.77,SW,223,4.0,6.0,70,0.00,,,0.00,Wunderground v.1.15,2013-07-29 02:10:00,
2013-07-28 19:15:00,67.1,57.0,29.77,South,191,3.0,6.0,70,0.00,,,0.00,Wunderground v.1.15,2013-07-29 02:15:00,
2013-07-28 19:30:00,66.6,56.9,29.77,SSE,161,3.0,3.0,71,0.00,,,0.00,Wunderground v.1.15,2013-07-29 02:30:00,
2013-07-28 19:35:00,66.3,57.0,29.77,SSW,213,3.0,3.0,72,0.00,,,0.00,Wunderground v.1.15,2013-07-29 02:35:00,
2013-07-28 19:45:00,64.9,56.8,29.77,South,184,4.0,6.0,75,0.00,,,0.00,Wunderground v.1.15,2013-07-29 02:45:00,
2013-07-28 19:50:00,64.6,56.9,29.78,SW,215,3.0,3.0,76,0.00,,,0.00,Wunderground v.1.15,2013-07-29 02:50:00,
2013-07-28 20:05:00,63.8,56.8,29.78,SSW,208,2.0,2.0,78,0.00,,,0.00,Wunderground v.1.15,2013-07-29 03:05:00,
2013-07-28 20:20:00,63.2,56.6,29.78,SW,224,2.0,2.0,79,0.00,,,0.00,Wunderground v.1.15,2013-07-29 03:20:00,
2013-07-28 20:30:00,62.7,56.4,29.78,SW,222,3.0,3.0,80,0.00,,,0.00,Wunderground v.1.15,2013-07-29 03:30:00,
2013-07-28 20:35:00,62.7,56.4,29.78,South,181,2.0,3.0,80,0.00,,,0.00,Wunderground v.1.15,2013-07-29 03:35:00,
2013-07-28 20:40:00,62.5,56.6,29.78,SSW,209,2.0,3.0,81,0.00,,,0.00,Wunderground v.1.15,2013-07-29 03:40:00,
2013-07-28 20:45:00,62.5,56.6,29.78,SW,219,2.0,3.0,81,0.00,,,0.00,Wunderground v.1.15,2013-07-29 03:45:00,
2013-07-28 21:00:00,62.2,56.3,29.79,SSW,213,2.0,2.0,81,0.00,,,0.00,Wunderground v.1.15,2013-07-29 04:00:00,
2013-07-28 21:05:00,62.2,56.6,29.79,SSW,213,1.0,2.0,82,0.00,,,0.00,Wunderground v.1.15,2013-07-29 04:05:00,
2013-07-28 21:10:00,62.2,56.6,29.79,SSW,203,1.0,2.0,82,0.00,,,0.00,Wunderground v.1.15,2013-07-29 04:10:00,
2013-07-28 21:15:00,62.2,56.6,29.79,SSW,203,1.0,2.0,82,0.00,,,0.00,Wunderground v.1.15,2013-07-29 04:15:00,
2013-07-28 21:30:00,62.0,56.4,29.80,SSE,165,1.0,1.0,82,0.00,,,0.00,Wunderground v.1.15,2013-07-29 04:30:00,
2013-07-28 21:40:00,62.0,56.4,29.80,SSE,165,2.0,2.0,82,0.00,,,0.00,Wunderground v.1.15,2013-07-29 04:40:00,
2013-07-28 21:55:00,61.9,56.7,29.81,South,171,3.0,3.0,83,0.00,,,0.00,Wunderground v.1.15,2013-07-29 04:55:00,
2013-07-28 22:00:00,61.9,56.7,29.81,South,172,3.0,5.0,83,0.00,,,0.00,Wunderground v.1.15,2013-07-29 05:00:00,
2013-07-28 22:05:00,61.9,56.7,29.81,SSE,154,3.0,5.0,83,0.00,,,0.00,Wunderground v.1.15,2013-07-29 05:05:00,
2013-07-28 22:21:00,61.9,56.7,29.81,South,189,2.0,2.0,83,0.00,,,0.00,Wunderground v.1.15,2013-07-29 05:21:00,
2013-07-28 22:25:00,61.9,56.7,29.81,SSW,192,2.0,2.0,83,0.00,,,0.00,Wunderground v.1.15,2013-07-29 05:25:00,
2013-07-28 22:30:00,61.9,56.7,29.81,SSE,167,2.0,2.0,83,0.00,,,0.00,Wunderground v.1.15,2013-07-29 05:30:00,
2013-07-28 22:35:00,62.0,56.4,29.81,SSE,168,2.0,2.0,82,0.00,,,0.00,Wunderground v.1.15,2013-07-29 05:35:00,
2013-07-28 22:50:00,62.0,56.4,29.81,SSW,210,3.0,5.0,82,0.00,,,0.00,Wunderground v.1.15,2013-07-29 05:50:00,
2013-07-28 23:00:00,61.9,56.3,29.81,SW,220,3.0,3.0,82,0.00,,,0.00,Wunderground v.1.15,2013-07-29 06:00:00,
2013-07-28 23:16:00,61.9,56.3,29.82,SW,220,3.0,3.0,82,0.00,,,0.00,Wunderground v.1.15,2013-07-29 06:16:00,
2013-07-28 23:20:00,61.9,56.3,29.82,SW,227,2.0,3.0,82,0.00,,,0.00,Wunderground v.1.15,2013-07-29 06:20:00,
2013-07-28 23:30:00,62.0,56.8,29.82,SW,227,1.0,1.0,83,0.00,,,0.00,Wunderground v.1.15,2013-07-29 06:30:00,
2013-07-28 23:35:00,62.0,56.8,29.82,South,184,1.0,3.0,83,0.00,,,0.00,Wunderground v.1.15,2013-07-29 06:35:00,
2013-07-28 23:50:00,62.2,56.6,29.82,ESE,117,2.0,2.0,82,0.00,,,0.00,Wunderground v.1.15,2013-07-29 06:50:00,
2013-07-28 23:55:00,62.2,56.6,29.82,SE,128,2.0,2.0,82,0.00,,,0.00,Wunderground v.1.15,2013-07-29 06:55:00,